Location: M.A.R.S.Observatory
(35.4031°N, 81.5481°W)
Time: 06:40:56
(UTC-04:00)

SL-8 R/B - Visible Passes

Search period start: 24 July 2014 00:00
Search period end: 03 August 2014 00:00
Orbit: 659 x 670 km, 48.4° (Epoch: 23 July)

Date Brightness Start Highest point End Pass type
(mag) Time Alt. Az. Time Alt. Az. Time Alt. Az.
29 Jul 6.1 05:43:07 10° SSE 05:46:02 16° SE 05:48:56 10° E visible
31 Jul 5.8 05:03:51 10° S 05:07:02 18° SE 05:10:14 10° E visible
01 Aug 4.4 05:34:24 13° SSW 05:38:30 48° SE 05:43:06 10° ENE visible
02 Aug 5.5 04:26:59 19° SSE 04:28:03 20° SE 04:31:30 10° E visible
02 Aug 3.8 06:05:30 10° WSW 06:10:15 69° NW 06:15:02 10° NE visible
